Content
SEND FEEDBACK

Daily
Averages
Monthly
Summary
United States of America

WINCHESTER, NEVADA


Home > North America > United States > Nevada
Elevation: 2153 feet     Latitude: 36 05N     Longitude: 115 10W

WEATHER
 
SELECT A DAY
Number of Records: 139,494;   Date Range: 12/15/97 - 12/17/14
 
SHARE

PRINT THIS DATA

[ ← Previous Day ]
WEATHER ALMANAC - JANUARY 31, 2013
[ Next Day → ]
[ °C ]   °F
Weather ElementAverageHighLow
Temperature51.2 °F64 °F (2:53 pm)39.9 °F (4:53 am)
Dewpoint31.3 °F34 °F (8:53 pm)28.9 °F (2:53 pm)
Humidity49 %70 % (4:53 am)27 % (2:53 pm)
Barometer30.30 in30.37 in (7:53 am)30.21 in (11:53 pm)
Wind Speed2.8 mph6.9 mph (9:53 pm)
Weather ElementAverage
Visibility10 mi
Wind DirectionESE (101.7 °)

Weather ElementTotal
Precipitation---
Heating Degree Days13.1 (Base 65)
Growing Degree Days2 (Base 50)
Averaged from 23 records on January 31, 2013
WEATHER CONDITIONS BREAKOUT
WIND DIRECTION BREAKOUT
WEATHER BY HOUR - JANUARY 31, 2013
[ °C ]   °F
Local TimeTemperatureDewpointHumidityBarometerVisibilityWind DirectionWind SpeedGust SpeedPrecipitationEventsConditions
1:53 AM43.0 °F30.0 °F60 %30.34 in10.0 miCalmClear
2:53 AM44.1 °F30.0 °F58 %30.33 in10.0 miWSW (240°)3.5 mphClear
3:53 AM42.1 °F30.9 °F65 %30.33 in10.0 miCalmClear
4:53 AM39.9 °F30.9 °F70 %30.33 in10.0 miNorth (10°)4.6 mphClear
5:53 AM39.9 °F30.9 °F70 %30.34 in10.0 miCalmClear
6:53 AM42.1 °F30.0 °F62 %30.35 in10.0 miNNE (30°)3.5 mphClear
7:53 AM46.0 °F32.0 °F58 %30.37 in10.0 miNW (310°)5.8 mphClear
8:53 AM50.0 °F33.1 °F52 %30.37 in10.0 miCalmClear
9:53 AM53.1 °F32.0 °F45 %30.37 in10.0 miCalmClear
10:53 AM54.0 °F30.9 °F41 %30.35 in10.0 miSSE (150°)3.5 mphClear
11:53 AM57.9 °F30.9 °F36 %30.33 in10.0 miVariable5.8 mphClear
12:53 PM60.1 °F30.9 °F33 %30.29 in10.0 miSouth (180°)5.8 mphClear
1:53 PM62.1 °F30.0 °F30 %30.28 in10.0 miCalmClear
2:53 PM64.0 °F28.9 °F27 %30.25 in10.0 miCalmClear
3:53 PM63.0 °F28.9 °F28 %30.25 in10.0 miEast (90°)3.5 mphClear
4:53 PM61.0 °F30.0 °F31 %30.23 in10.0 miEast (80°)4.6 mphClear
5:53 PM59.0 °F30.0 °F33 %30.24 in10.0 miCalmClear
6:53 PM54.0 °F33.1 °F45 %30.25 in10.0 miWNW (300°)4.6 mphClear
7:53 PM51.1 °F33.1 °F50 %30.26 in10.0 miNW (320°)5.8 mphClear
8:53 PM48.9 °F34.0 °F56 %30.26 in10.0 miWNW (300°)5.8 mphClear
9:53 PM48.0 °F33.1 °F56 %30.26 in10.0 miNNW (330°)6.9 mphClear
10:53 PM46.9 °F33.1 °F59 %30.27 in10.0 miCalmClear
11:53 PM46.4 °F33.8 °F62 %30.21 in10.0 miCalmClear
Hourly data recorded from KVGT, located miles away from Winchester, Nevada







STORIES FROM OUR PARTNERS